Showing default

LCS 1, 1361

Orbit data source: Space-Track

LCS 1, 1361 is an American payload satellite in LEO that was launched on Thu, 06 May 1965 UTC via a TITAN IIIA launch vehicle from the Air Force Eastern Test Range (AFETR). Payload-class satellites include a variety of spacecraft equipped with specific instruments for various scientific and technological missions. These include communications satellites like Starlink; space stations such as the ISS; scientific satellites like the Hubble; Earth observation satellites from companies like Planet Labs, Umbra, and HawkEye 360; GPS; miniature CubeSats for education and research; and military/defense satellites.

Loading next visibility...
Identifier
1361, 1965-034C
Orbit
LEO
Country
Flag of USUS
Related business
Manufacturer
ROHR/MITLL
Mission
Operational spacecraft
Bus & Motor
LCS, Unknown motor
Mass
34 kg wet, 34 kg dry
Launch date (UTC)
1965-05-06 (60 years ago)
Launch vehicle
TITAN IIIA
Launch site
Air Force Eastern Test Range (AFETR)
Object type
Payload
Rocket body
Debris
Shape & HBR
Unknown
Radar Cross Section
Medium (>0.1 m² and <1 m²)

Expand to show TLE details & history
Last TLE update: 21 hours ago

TLE from 21 hours ago
0 LCS 1
1 01361U 65034C   25292.23859810  .00000005  00000-0 -42521-3 0  9998
2 01361  32.1457  29.1161 0013528 348.5717  11.4473  9.89309165186026
Epoch: 2025-10-19T05:43Z
TLE epoch observation values (Epoch: 2025-10-19T05:43:34.875Z)
Latitude
0.00002°
Longitude
-84.73731°
Altitude
2,774.686 km
Speed
6.606 km/s
True Right ascension
01h 56m 27s
True Declination
0° 00' 00"
Sunlit
Object was in full shadow at epoch
Visualization orbit readout
Latitude
Unknown
Longitude
Unknown
Altitude
Unknown
Speed
Unknown
Apparent Right ascension
Unknown
Apparent Declination
Unknown
Sunlit
N/A
Visualization observer readout
Local Sidereal Time
21:57:26
Azimuth
Unknown
Elevation
Unknown
Doppler factor
Unknown
Orbital elements
Apogee altitude
2,803.051 km
Perigee altitude
2,778.244 km
Semi-major axis
9,168.784 km
Eccentricity
0.00135
Inclination
32.1457°
RAAN
29.1161°
Arg. of periapsis
348.5717°
True anomaly
11.47812°
Mean anomaly
11.4473°
Eccentric anomaly
11.4627°
Mean motion
2.47215 °/min
Orbital period
145.62 mins
BSTAR
-0.00042521
Loading maneuver chart data...
Computing Atmospheric mass density...
Loading historical data...
Loading historical data...
Loading historical data...
Loading historical data...
Loading historical data...
Loading historical data...
Loading historical data...
Other satellites on launch #34 in the year 1965 (1965-05-06 UTC)

Documentation

Showing up to 5 results
|